EW7554 Weather Reports


Display with metric or nautical units.
time (UTC)temp
F
wind
direction
speed
MPH
gust
MPH
rain 1hr
in
rain 24hr
in
rain mn
in
humidity
%
barometer
mb
20260904173004 82 13 4.0 10.0 0.00 0.03 0.00 74 1011.4
20260904171502 82 355 5.0 10.0 0.00 0.03 0.00 74 1011.3
20260904170100 82 351 3.0 12.0 0.00 0.03 0.00 76 1011.2
20260904164559 81 334 4.0 10.0 0.00 0.03 0.00 75 1011.2
20260904163058 83 355 4.0 11.0 0.00 0.03 0.00 74 1011.0
20260904161553 85 5 4.0 11.0 0.00 0.03 0.00 72 1010.8
20260904160050 85 338 3.0 7.0 0.00 0.03 0.00 72 1010.6
20260904154546 85 322 2.0 6.0 0.00 0.03 0.00 70 1010.6
20260904153044 84 11 1.0 4.0 0.00 0.03 0.00 72 1010.3
20260904151538 84 298 1.0 4.0 0.00 0.03 0.00 73 1010.2
20260904150038 83 254 1.0 3.0 0.00 0.03 0.00 75 1010.1
20260904144530 82 200 1.0 3.0 0.00 0.03 0.00 77 1010.0
20260904143026 82 355 1.0 4.0 0.00 0.03 0.00 76 1010.1
20260904141526 82 146 0.0 2.0 0.00 0.03 0.00 76 1010.0
20260904140018 80 133 0.0 2.0 0.00 0.03 0.00 79 1009.9
20260904134514 80 40 0.0 2.0 0.00 0.03 0.00 79 1010.1
20260904133010 79 37 0.0 2.0 0.00 0.03 0.00 82 1010.1
20260904131506 77 37 1.0 3.0 0.00 0.03 0.00 84 1009.9
20260904130002 76 35 0.0 2.0 0.00 0.03 0.00 87 1009.9
20260904124558 75 35 0.0 3.0 0.00 0.03 0.00 89 1009.7
20260904123057 74 35 1.0 3.0 0.00 0.03 0.00 89 1009.6
20260904121550 73 38 1.0 4.0 0.00 0.03 0.00 89 1009.2
20260904120051 73 55 0.0 3.0 0.00 0.03 0.00 89 1009.2
20260904114548 73 54 2.0 4.0 0.00 0.03 0.00 89 1009.2
20260904113044 73 50 0.0 3.0 0.00 0.03 0.00 89 1009.0
20260904111545 74 48 2.0 3.0 0.00 0.03 0.00 88 1008.9
20260904110042 74 49 1.0 2.0 0.00 0.03 0.00 88 1008.9
20260904104540 74 49 1.0 3.0 0.00 0.03 0.00 88 1008.9
20260904103050 74 40 2.0 3.0 0.00 0.03 0.00 88 1008.9
20260904101539 75 41 2.0 4.0 0.00 0.03 0.00 87 1009.0
20260904100035 75 77 1.0 4.0 0.00 0.03 0.00 86 1008.8
20260904094532 76 161 1.0 2.0 0.00 0.03 0.00 85 1008.7
20260904093031 76 161 0.0 3.0 0.00 0.03 0.00 85 1008.6
20260904091530 76 161 2.0 5.0 0.00 0.03 0.00 85 1008.4
20260904090029 76 161 2.0 3.0 0.00 0.03 0.00 85 1008.4
20260904084527 77 161 1.0 2.0 0.00 0.03 0.00 84 1008.4
20260904083034 77 161 0.0 3.0 0.00 0.03 0.00 84 1008.3
20260904081526 77 160 1.0 3.0 0.00 0.03 0.00 84 1008.2
20260904080026 77 146 2.0 4.0 0.00 0.03 0.00 84 1008.2
20260904074543 77 147 0.0 2.0 0.00 0.03 0.00 83 1008.2
20260904073033 77 147 0.0 4.0 0.00 0.03 0.00 83 1008.3
20260904071523 77 150 0.0 2.0 0.00 0.03 0.00 83 1008.3
20260904070023 78 150 0.0 2.0 0.00 0.03 0.00 82 1008.4
20260904064520 78 150 1.0 3.0 0.00 0.03 0.00 82 1008.3
20260904063020 78 151 2.0 5.0 0.00 0.03 0.00 81 1008.4
20260904061519 78 154 2.0 6.0 0.00 0.03 0.00 81 1008.3
20260904060024 78 157 2.0 6.0 0.00 0.03 0.00 81 1008.4
20260904054517 78 159 3.0 6.0 0.00 0.03 0.00 80 1008.4
20260904053020 78 159 2.0 5.0 0.00 0.03 0.00 80 1008.3
20260904051513 79 146 2.0 6.0 0.00 0.03 0.00 79 1008.3
20260904050010 79 149 2.0 5.0 0.00 0.03 0.00 79 1008.2
20260904044510 79 153 2.0 8.0 0.00 0.03 0.03 78 1008.2
20260904043015 79 152 2.0 6.0 0.00 0.03 0.03 78 1008.1
20260904041509 80 149 2.0 6.0 0.00 0.03 0.03 77 1008.1
20260904040009 80 166 4.0 8.0 0.00 0.03 0.03 76 1008.1
20260904034508 80 163 2.0 7.0 0.00 0.03 0.03 75 1008.2
20260904033007 81 152 2.0 7.0 0.00 0.03 0.03 74 1008.1
20260904031507 81 163 3.0 9.0 0.00 0.03 0.03 73 1008.2
20260904030007 81 175 4.0 9.0 0.00 0.03 0.03 73 1008.3
20260904024506 81 194 4.0 9.0 0.00 0.03 0.03 74 1008.2
20260904023006 81 101 1.0 3.0 0.00 0.03 0.03 72 1008.2
20260904021512 81 142 1.0 7.0 0.00 0.03 0.03 72 1008.1
20260904020006 82 157 2.0 7.0 0.00 0.03 0.03 71 1008.0
20260904014504 82 167 4.0 8.0 0.00 0.03 0.03 70 1007.9
20260904013004 83 167 4.0 9.0 0.00 0.03 0.03 69 1007.8
20260904011503 83 171 5.0 9.0 0.00 0.03 0.03 68 1007.7
20260904010005 83 142 5.0 9.0 0.00 0.03 0.03 68 1007.5
20260904004502 84 171 4.0 9.0 0.00 0.03 0.03 67 1007.5
20260904003002 84 174 5.0 12.0 0.00 0.03 0.03 65 1007.5
20260904001501 85 170 4.0 9.0 0.00 0.03 0.03 64 1007.5
20260904000003 85 184 8.0 12.0 0.00 0.03 0.03 63 1007.6
20260903234601 86 140 7.0 16.0 0.00 0.03 0.03 62 1007.6
20260903233113 86 175 7.0 17.0 0.00 0.03 0.03 61 1007.5
20260903231600 87 157 8.0 15.0 0.00 0.03 0.03 61 1007.2
20260903230059 87 183 10.0 20.0 0.00 0.03 0.03 59 1006.8
20260903224559 87 169 10.0 17.0 0.00 0.03 0.03 59 1006.9
20260903223113 87 142 9.0 16.0 0.00 0.03 0.03 58 1006.9
20260903221556 87 168 9.0 14.0 0.00 0.03 0.03 58 1007.0
20260903220155 87 159 11.0 22.0 0.00 0.03 0.03 58 1007.0
20260903214553 87 163 9.0 17.0 0.00 0.03 0.03 59 1007.0
20260903213052 86 158 9.0 17.0 0.00 0.03 0.03 59 1007.2
20260903211555 86 169 9.0 20.0 0.00 0.03 0.03 59 1007.4
20260903210058 85 169 8.0 17.0 0.00 0.03 0.03 62 1007.2
20260903204549 85 166 7.0 14.0 0.00 0.03 0.03 59 1008.0
20260903203055 85 169 6.0 17.0 0.00 0.03 0.03 59 1007.9
20260903201548 86 171 9.0 16.0 0.00 0.03 0.03 58 1007.9
20260903200047 87 134 10.0 16.0 0.00 0.03 0.03 58 1007.9
20260903194547 86 168 10.0 18.0 0.00 0.03 0.03 59 1007.9
20260903193042 86 163 7.0 14.0 0.00 0.03 0.03 62 1008.2
20260903191540 85 151 5.0 9.0 0.01 0.03 0.03 68 1007.9
20260903190037 84 158 2.0 10.0 0.03 0.03 0.03 72 1008.2
20260903184533 81 26 2.0 5.0 0.03 0.03 0.03 79 1008.7
20260903183031 79 36 2.0 5.0 0.03 0.03 0.03 79 1008.7
20260903181532 78 111 1.0 3.0 0.02 0.02 0.02 78 1008.9
20260903180037 79 126 0.0 7.0 0.00 0.00 0.00 73 1008.8
20260903174528 80 164 4.0 6.0 0.00 0.00 0.00 69 1008.8